This is the latest recevied weather packets stored in our database for station/object EW1958. If no packets are shown the sender has not sent any weather packets the latest 10 day(s).
| Time | Temp. | Humidity | Pressure | Rain* | Wind** | Luminosity | Snow |
|---|---|---|---|---|---|---|---|
| 1777786131 | 14.44° C | 75% | 1017.2 hPa | 0 mm | - | - | - |
| 1777785703 | 14.44° C | 75% | 1017.2 hPa | 0 mm | - | - | - |
| 1777785555 | 14.44° C | 76% | 1017.2 hPa | 0 mm | - | - | - |
| 1777785100 | 14.44° C | 76% | 1017.3 hPa | 0 mm | - | - | - |
| 1777784951 | 15° C | 76% | 1017.1 hPa | 0 mm | - | - | - |
| 1777784499 | 15° C | 75% | 1017.2 hPa | 0 mm | - | - | - |
| 1777784199 | 15° C | 75% | 1017.2 hPa | 0 mm | - | - | - |
| 1777784026 | 15.56° C | 73% | 1017.2 hPa | 0 mm | - | - | - |
| 1777783598 | 15.56° C | 72% | 1017.1 hPa | 0 mm | - | - | - |
| 1777783296 | 15.56° C | 72% | 1017 hPa | 0 mm | - | - | - |
| 1777782995 | 15.56° C | 70% | 1017.1 hPa | 0 mm | - | - | - |
| 1777782847 | 16.11° C | 71% | 1016.9 hPa | 0 mm | - | - | - |
| 1777782402 | 16.11° C | 71% | 1016.8 hPa | 0 mm | - | - | - |
| 1777782392 | 16.11° C | 69% | 1016.9 hPa | 0 mm | - | - | - |
| 1777781791 | 16.11° C | 70% | 1016.8 hPa | 0 mm | - | - | - |
| 1777781496 | 16.67° C | 70% | 1016.7 hPa | 0 mm | - | - | - |
| 1777780911 | 17.22° C | 69% | 1016.6 hPa | 0 mm | - | - | - |
| 1777780904 | 16.67° C | 71% | 1016.6 hPa | 0 mm | - | - | - |
| 1777779985 | 17.22° C | 66% | 1016.3 hPa | 0 mm | - | - | - |
| 1777779683 | 17.78° C | 66% | 1016.3 hPa | 0 mm | - | - | - |
| 1777779534 | 17.78° C | 64% | 1016.1 hPa | 0 mm | - | - | - |
| 1777779234 | 17.78° C | 63% | 1016 hPa | 0 mm | - | - | - |
| 1777778777 | 17.78° C | 65% | 1016 hPa | 0 mm | - | - | - |
| 1777778477 | 18.33° C | 66% | 1015.9 hPa | 0 mm | - | - | - |
| 1777778177 | 18.33° C | 67% | 1016 hPa | 0 mm | - | - | - |
* Rain latest hour (hover to see other rain measurements)
** Current wind speed in m/s (hover to see current wind gust speed)